TimeEST,TemperatureF,Dew PointF,Humidity,Sea Level PressureIn,VisibilityMPH,Wind Direction,Wind SpeedMPH,Gust SpeedMPH,PrecipitationIn,Events,Conditions,WindDirDegrees,DateUTC
12:53 AM,39.0,19.0,45,29.89,10.0,NNW,11.5,-,N/A,,Overcast,330,2012-11-08 05:53:00
1:53 AM,39.0,19.0,45,29.89,10.0,NW,9.2,-,N/A,,Overcast,310,2012-11-08 06:53:00
2:53 AM,37.9,19.0,47,29.88,10.0,WNW,8.1,-,N/A,,Overcast,290,2012-11-08 07:53:00
3:53 AM,39.0,18.0,43,29.88,10.0,NW,9.2,-,N/A,,Overcast,320,2012-11-08 08:53:00
4:53 AM,39.0,17.1,41,29.86,10.0,NW,17.3,23.0,N/A,,Overcast,320,2012-11-08 09:53:00
5:53 AM,39.0,18.0,43,29.87,10.0,NW,15.0,26.5,N/A,,Overcast,320,2012-11-08 10:53:00
6:53 AM,39.0,19.0,45,29.89,10.0,NNW,18.4,-,N/A,,Overcast,330,2012-11-08 11:53:00
7:53 AM,39.0,19.0,45,29.91,10.0,NW,10.4,-,N/A,,Partly Cloudy,310,2012-11-08 12:53:00
8:53 AM,41.0,18.0,40,29.92,10.0,WNW,12.7,-,N/A,,Clear,290,2012-11-08 13:53:00
9:53 AM,42.1,18.0,38,29.93,10.0,NNW,12.7,23.0,N/A,,Clear,330,2012-11-08 14:53:00
10:53 AM,45.0,19.9,37,29.94,10.0,NNW,16.1,21.9,N/A,,Clear,330,2012-11-08 15:53:00
11:53 AM,46.9,19.0,33,29.92,10.0,North,18.4,24.2,N/A,,Clear,350,2012-11-08 16:53:00
12:53 PM,48.0,19.9,33,29.90,10.0,NNW,19.6,29.9,N/A,,Clear,340,2012-11-08 17:53:00
1:53 PM,48.9,19.0,31,29.89,10.0,NNW,21.9,29.9,N/A,,Clear,330,2012-11-08 18:53:00
2:53 PM,48.9,19.0,31,29.90,10.0,NNW,18.4,25.3,N/A,,Clear,330,2012-11-08 19:53:00
3:53 PM,48.0,15.1,27,29.91,10.0,NNW,20.7,26.5,N/A,,Clear,330,2012-11-08 20:53:00
4:53 PM,46.9,14.0,27,29.92,10.0,NW,18.4,24.2,N/A,,Clear,320,2012-11-08 21:53:00
5:53 PM,45.0,12.0,26,29.95,10.0,NW,10.4,-,N/A,,Clear,310,2012-11-08 22:53:00
6:53 PM,44.1,12.9,28,29.97,10.0,NW,12.7,-,N/A,,Clear,310,2012-11-08 23:53:00
7:53 PM,43.0,12.9,30,29.99,10.0,NW,16.1,-,N/A,,Clear,320,2012-11-09 00:53:00
8:53 PM,42.1,12.9,31,30.01,10.0,NNW,10.4,-,N/A,,Clear,330,2012-11-09 01:53:00
9:53 PM,39.9,14.0,35,30.03,10.0,NW,8.1,-,N/A,,Clear,320,2012-11-09 02:53:00
10:53 PM,37.9,16.0,41,30.02,10.0,NW,5.8,-,N/A,,Clear,320,2012-11-09 03:53:00
11:53 PM,39.0,17.1,41,30.04,10.0,NW,11.5,-,N/A,,Clear,320,2012-11-09 04:53:00